Year,Month,Day,Hour,Minute,Value (Times are PST for windgust in km/hr)
2018,03,29,00,00,1.60
2018,03,29,00,01,1.60
2018,03,29,00,02,1.60
2018,03,29,00,04,1.60
2018,03,29,00,05,1.60
2018,03,29,00,06,3.20
2018,03,29,00,07,1.60
2018,03,29,00,08,1.60
2018,03,29,00,09,3.20
2018,03,29,00,10,1.60
2018,03,29,00,11,1.60
2018,03,29,00,12,1.60
2018,03,29,00,14,1.60
2018,03,29,00,15,3.20
2018,03,29,00,16,1.60
2018,03,29,00,17,1.60
2018,03,29,00,18,1.60
2018,03,29,00,19,3.20
2018,03,29,00,20,3.20
2018,03,29,00,21,3.20
2018,03,29,00,22,1.60
2018,03,29,00,24,1.60
2018,03,29,00,25,3.20
2018,03,29,00,26,1.60
2018,03,29,00,27,1.60
2018,03,29,00,28,3.20
2018,03,29,00,29,3.20
2018,03,29,00,30,1.60
2018,03,29,00,32,1.60
2018,03,29,00,33,3.20
2018,03,29,00,34,4.80
2018,03,29,00,35,1.60
2018,03,29,00,36,3.20
2018,03,29,00,37,3.20
2018,03,29,00,38,1.60
2018,03,29,00,39,1.60
2018,03,29,00,40,1.60
2018,03,29,00,41,3.20
2018,03,29,00,42,1.60
2018,03,29,00,43,3.20
2018,03,29,00,44,3.20
2018,03,29,00,45,1.60
2018,03,29,00,46,3.20
2018,03,29,00,47,3.20
2018,03,29,00,48,3.20
2018,03,29,00,49,1.60
2018,03,29,00,50,3.20
2018,03,29,00,51,3.20
2018,03,29,00,52,3.20
2018,03,29,00,53,1.60
2018,03,29,00,54,1.60
2018,03,29,00,55,1.60
2018,03,29,00,56,3.20
2018,03,29,00,57,1.60
2018,03,29,00,58,1.60
2018,03,29,00,59,1.60
2018,03,29,01,00,3.20
2018,03,29,01,01,1.60
2018,03,29,01,02,1.60
2018,03,29,01,03,1.60
2018,03,29,01,04,1.60
2018,03,29,01,05,3.20
2018,03,29,01,06,1.60
2018,03,29,01,07,1.60
2018,03,29,01,08,1.60
2018,03,29,01,09,1.60
2018,03,29,01,10,4.80
2018,03,29,01,11,6.40
2018,03,29,01,12,3.20
2018,03,29,01,13,3.20
2018,03,29,01,14,4.80
2018,03,29,01,15,1.60
2018,03,29,01,16,3.20
2018,03,29,01,17,4.80
2018,03,29,01,18,4.80
2018,03,29,01,19,4.80
2018,03,29,01,20,3.20
2018,03,29,01,21,3.20
2018,03,29,01,22,3.20
2018,03,29,01,23,3.20
2018,03,29,01,24,1.60
2018,03,29,01,25,1.60
2018,03,29,01,26,1.60
2018,03,29,01,27,1.60
2018,03,29,01,28,3.20
2018,03,29,01,29,3.20
2018,03,29,01,30,1.60
2018,03,29,01,31,1.60
2018,03,29,01,32,1.60
2018,03,29,01,33,1.60
2018,03,29,01,34,1.60
2018,03,29,01,35,1.60
2018,03,29,01,36,1.60
2018,03,29,01,37,1.60
2018,03,29,01,38,1.60
2018,03,29,01,39,1.60
2018,03,29,01,40,3.20
2018,03,29,01,41,1.60
2018,03,29,01,42,1.60
2018,03,29,01,43,1.60
2018,03,29,01,45,1.60
2018,03,29,01,46,1.60
2018,03,29,01,47,1.60
2018,03,29,01,48,1.60
2018,03,29,01,49,1.60
2018,03,29,01,52,1.60
2018,03,29,01,53,3.20
2018,03,29,01,54,1.60
2018,03,29,01,55,3.20
2018,03,29,01,56,1.60
2018,03,29,01,57,1.60
2018,03,29,01,58,1.60
2018,03,29,01,59,1.60
2018,03,29,02,00,1.60
2018,03,29,02,01,3.20
2018,03,29,02,02,3.20
2018,03,29,02,03,3.20
2018,03,29,02,04,3.20
2018,03,29,02,05,1.60
2018,03,29,02,06,1.60
2018,03,29,02,07,1.60
2018,03,29,02,10,1.60
2018,03,29,02,11,1.60
2018,03,29,02,12,1.60
2018,03,29,02,13,1.60
2018,03,29,02,14,1.60
2018,03,29,02,15,1.60
2018,03,29,02,16,3.20
2018,03,29,02,17,1.60
2018,03,29,02,18,3.20
2018,03,29,02,19,3.20
2018,03,29,02,20,1.60
2018,03,29,02,21,1.60
2018,03,29,02,22,1.60
2018,03,29,02,23,1.60
2018,03,29,02,24,3.20
2018,03,29,02,25,3.20
2018,03,29,02,26,3.20
2018,03,29,02,27,1.60
2018,03,29,02,28,3.20
2018,03,29,02,29,1.60
2018,03,29,02,30,1.60
2018,03,29,02,31,1.60
2018,03,29,02,32,3.20
2018,03,29,02,33,1.60
2018,03,29,02,34,1.60
2018,03,29,02,35,3.20
2018,03,29,02,36,4.80
2018,03,29,02,37,4.80
2018,03,29,02,38,3.20
2018,03,29,02,39,4.80
2018,03,29,02,40,1.60
2018,03,29,02,41,4.80
2018,03,29,02,42,6.40
2018,03,29,02,43,4.80
2018,03,29,02,44,4.80
2018,03,29,02,45,3.20
2018,03,29,02,46,4.80
2018,03,29,02,47,6.40
2018,03,29,02,48,6.40
2018,03,29,02,49,3.20
2018,03,29,02,50,3.20
2018,03,29,02,51,1.60
2018,03,29,02,52,1.60
2018,03,29,02,53,3.20
2018,03,29,02,54,3.20
2018,03,29,02,55,4.80
2018,03,29,02,56,3.20
2018,03,29,02,57,3.20
2018,03,29,02,58,3.20
2018,03,29,02,59,3.20
2018,03,29,03,00,1.60
2018,03,29,03,01,3.20
2018,03,29,03,02,3.20
2018,03,29,03,03,3.20
2018,03,29,03,04,1.60
2018,03,29,03,05,1.60
2018,03,29,03,06,1.60
2018,03,29,03,07,1.60
2018,03,29,03,08,3.20
2018,03,29,03,09,3.20
2018,03,29,03,10,3.20
2018,03,29,03,11,3.20
2018,03,29,03,12,3.20
2018,03,29,03,13,1.60
2018,03,29,03,14,3.20
2018,03,29,03,15,3.20
2018,03,29,03,16,3.20
2018,03,29,03,17,3.20
2018,03,29,03,18,3.20
2018,03,29,03,19,3.20
2018,03,29,03,20,1.60
2018,03,29,03,21,1.60
2018,03,29,03,22,1.60
2018,03,29,03,23,1.60
2018,03,29,03,24,1.60
2018,03,29,03,25,1.60
2018,03,29,03,26,1.60
2018,03,29,03,27,1.60
2018,03,29,03,29,1.60
2018,03,29,03,30,1.60
2018,03,29,03,31,1.60
2018,03,29,03,32,1.60
2018,03,29,03,33,1.60
2018,03,29,03,34,1.60
2018,03,29,03,35,1.60
2018,03,29,03,36,1.60
2018,03,29,03,37,1.60
2018,03,29,03,38,3.20
2018,03,29,03,39,1.60
2018,03,29,03,40,1.60
2018,03,29,03,41,1.60
2018,03,29,03,42,1.60
2018,03,29,03,43,1.60
2018,03,29,03,44,1.60
2018,03,29,03,45,1.60
2018,03,29,03,46,1.60
2018,03,29,03,47,1.60
2018,03,29,03,48,1.60
2018,03,29,03,49,1.60
2018,03,29,03,50,1.60
2018,03,29,03,51,1.60
2018,03,29,03,52,3.20
2018,03,29,03,53,1.60
2018,03,29,03,54,1.60
2018,03,29,03,55,1.60
2018,03,29,03,56,1.60
2018,03,29,03,57,4.80
2018,03,29,03,58,3.20
2018,03,29,03,59,1.60
2018,03,29,04,01,1.60
2018,03,29,04,02,3.20
2018,03,29,04,03,3.20
2018,03,29,04,04,3.20
2018,03,29,04,05,3.20
2018,03,29,04,06,3.20
2018,03,29,04,07,3.20
2018,03,29,04,08,1.60
2018,03,29,04,09,1.60
2018,03,29,04,10,1.60
2018,03,29,04,11,1.60
2018,03,29,04,12,3.20
2018,03,29,04,13,1.60
2018,03,29,04,14,1.60
2018,03,29,04,15,1.60
2018,03,29,04,16,1.60
2018,03,29,04,17,1.60
2018,03,29,04,18,1.60
2018,03,29,04,19,3.20
2018,03,29,04,20,3.20
2018,03,29,04,21,3.20
2018,03,29,04,22,1.60
2018,03,29,04,24,1.60
2018,03,29,04,27,1.60
2018,03,29,04,28,1.60
2018,03,29,04,29,1.60
2018,03,29,04,30,1.60
2018,03,29,04,31,3.20
2018,03,29,04,32,3.20
2018,03,29,04,33,1.60
2018,03,29,04,34,1.60
2018,03,29,04,35,3.20
2018,03,29,04,36,1.60
2018,03,29,04,37,1.60
2018,03,29,04,38,1.60
2018,03,29,04,39,1.60
2018,03,29,04,40,1.60
2018,03,29,04,41,1.60
2018,03,29,04,42,1.60
2018,03,29,04,43,1.60
2018,03,29,04,44,1.60
2018,03,29,04,45,1.60
2018,03,29,04,46,1.60
2018,03,29,04,47,1.60
2018,03,29,04,48,3.20
2018,03,29,04,49,3.20
2018,03,29,04,50,1.60
2018,03,29,04,51,1.60
2018,03,29,04,52,1.60
2018,03,29,04,53,1.60
2018,03,29,04,54,1.60
2018,03,29,04,55,3.20
2018,03,29,04,56,3.20
2018,03,29,04,57,3.20
2018,03,29,04,58,1.60
2018,03,29,04,59,1.60
2018,03,29,05,00,1.60
2018,03,29,05,03,1.60
2018,03,29,05,04,1.60
2018,03,29,05,05,1.60
2018,03,29,05,07,1.60
2018,03,29,05,08,1.60
2018,03,29,05,09,1.60
2018,03,29,05,10,1.60
2018,03,29,05,11,1.60
2018,03,29,05,12,1.60
2018,03,29,05,13,1.60
2018,03,29,05,14,1.60
2018,03,29,05,15,3.20
2018,03,29,05,16,4.80
2018,03,29,05,17,4.80
2018,03,29,05,18,4.80
2018,03,29,05,19,4.80
2018,03,29,05,20,3.20
2018,03,29,05,21,3.20
2018,03,29,05,22,3.20
2018,03,29,05,23,1.60
2018,03,29,05,24,1.60
2018,03,29,05,25,3.20
2018,03,29,05,26,3.20
2018,03,29,05,27,1.60
2018,03,29,05,28,1.60
2018,03,29,05,29,1.60
2018,03,29,05,31,1.60
2018,03,29,05,32,3.20
2018,03,29,05,33,1.60
2018,03,29,05,34,1.60
2018,03,29,05,35,1.60
2018,03,29,05,36,1.60
2018,03,29,05,37,1.60
2018,03,29,05,38,3.20
2018,03,29,05,39,1.60
2018,03,29,05,40,1.60
2018,03,29,05,41,1.60
2018,03,29,05,42,1.60
2018,03,29,05,43,1.60
2018,03,29,05,44,1.60
2018,03,29,05,45,1.60
2018,03,29,05,46,1.60
2018,03,29,05,50,1.60
2018,03,29,05,51,1.60
2018,03,29,05,52,1.60
2018,03,29,05,53,1.60
2018,03,29,05,54,1.60
2018,03,29,05,55,1.60
2018,03,29,05,56,1.60
2018,03,29,05,57,1.60
2018,03,29,05,58,1.60
2018,03,29,05,59,1.60
2018,03,29,06,00,1.60
2018,03,29,06,01,1.60
2018,03,29,06,02,1.60
2018,03,29,06,03,1.60
2018,03,29,06,04,1.60
2018,03,29,06,05,3.20
2018,03,29,06,06,3.20
2018,03,29,06,07,1.60
2018,03,29,06,08,1.60
2018,03,29,06,09,1.60
2018,03,29,06,10,1.60
2018,03,29,06,11,1.60
2018,03,29,06,12,1.60
2018,03,29,06,13,1.60
2018,03,29,06,15,1.60
2018,03,29,06,16,1.60
2018,03,29,06,17,3.20
2018,03,29,06,18,3.20
2018,03,29,06,19,1.60
2018,03,29,06,20,1.60
2018,03,29,06,21,1.60
2018,03,29,06,22,1.60
2018,03,29,06,23,1.60
2018,03,29,06,24,1.60
2018,03,29,06,25,1.60
2018,03,29,06,26,1.60
2018,03,29,06,27,1.60
2018,03,29,06,28,1.60
2018,03,29,06,29,1.60
2018,03,29,06,33,1.60
2018,03,29,06,34,1.60
2018,03,29,06,35,1.60
2018,03,29,06,36,1.60
2018,03,29,06,37,1.60
2018,03,29,06,38,1.60
2018,03,29,06,39,1.60
2018,03,29,06,40,1.60
2018,03,29,06,41,3.20
2018,03,29,06,42,3.20
2018,03,29,06,43,4.80
2018,03,29,06,44,4.80
2018,03,29,06,45,3.20
2018,03,29,06,46,1.60
2018,03,29,06,47,1.60
2018,03,29,06,48,1.60
2018,03,29,06,49,1.60
2018,03,29,06,50,1.60
2018,03,29,06,51,1.60
2018,03,29,06,52,1.60
2018,03,29,06,53,1.60
2018,03,29,06,54,1.60
2018,03,29,06,56,1.60
2018,03,29,06,58,1.60
2018,03,29,06,59,1.60
2018,03,29,07,00,1.60
2018,03,29,07,01,1.60
2018,03,29,07,02,3.20
2018,03,29,07,03,1.60
2018,03,29,07,07,1.60
2018,03,29,07,08,1.60
2018,03,29,07,09,1.60
2018,03,29,07,10,1.60
2018,03,29,07,11,1.60
2018,03,29,07,12,1.60
2018,03,29,07,13,3.20
2018,03,29,07,14,3.20
2018,03,29,07,15,3.20
2018,03,29,07,16,1.60
2018,03,29,07,17,1.60
2018,03,29,07,18,1.60
2018,03,29,07,19,1.60
2018,03,29,07,23,1.60
2018,03,29,07,24,1.60
2018,03,29,07,25,1.60
2018,03,29,07,30,1.60
2018,03,29,07,31,1.60
2018,03,29,07,32,1.60
2018,03,29,07,33,1.60
2018,03,29,07,34,1.60
2018,03,29,07,35,1.60
2018,03,29,07,36,1.60
2018,03,29,07,37,1.60
2018,03,29,07,38,1.60
2018,03,29,07,39,3.20
2018,03,29,07,40,4.80
2018,03,29,07,41,4.80
2018,03,29,07,42,1.60
2018,03,29,07,43,1.60
2018,03,29,07,44,1.60
2018,03,29,07,45,1.60
2018,03,29,07,46,1.60
2018,03,29,07,47,1.60
2018,03,29,07,48,1.60
2018,03,29,07,49,1.60
2018,03,29,07,50,1.60
2018,03,29,07,51,1.60
2018,03,29,07,52,1.60
2018,03,29,07,53,1.60
2018,03,29,07,56,1.60
2018,03,29,07,57,3.20
2018,03,29,07,58,1.60
2018,03,29,08,01,1.60
2018,03,29,08,02,3.20
2018,03,29,08,03,3.20
2018,03,29,08,04,3.20
2018,03,29,08,05,1.60
2018,03,29,08,06,1.60
2018,03,29,08,07,1.60
2018,03,29,08,08,1.60
2018,03,29,08,09,1.60
2018,03,29,08,11,1.60
2018,03,29,08,13,1.60
2018,03,29,08,14,1.60
2018,03,29,08,15,1.60
2018,03,29,08,16,1.60
2018,03,29,08,21,1.60
2018,03,29,08,38,1.60
2018,03,29,08,44,1.60
2018,03,29,08,45,1.60
2018,03,29,08,46,1.60
2018,03,29,08,50,1.60
2018,03,29,08,51,1.60
2018,03,29,08,52,1.60
2018,03,29,08,53,1.60
2018,03,29,08,54,1.60
2018,03,29,08,55,1.60
2018,03,29,08,56,3.20
2018,03,29,08,57,1.60
2018,03,29,08,59,1.60
2018,03,29,09,00,1.60
2018,03,29,09,01,1.60
2018,03,29,09,02,1.60
2018,03,29,09,03,1.60
2018,03,29,09,14,1.60
2018,03,29,09,15,1.60
2018,03,29,09,16,1.60
2018,03,29,09,17,1.60
2018,03,29,09,18,1.60
2018,03,29,09,19,1.60
2018,03,29,09,20,1.60
2018,03,29,09,21,1.60
2018,03,29,09,22,1.60
2018,03,29,09,23,1.60
2018,03,29,09,29,1.60
2018,03,29,09,31,1.60
2018,03,29,09,32,1.60
2018,03,29,09,33,1.60
2018,03,29,09,34,3.20
2018,03,29,09,35,1.60
2018,03,29,09,36,1.60
2018,03,29,09,37,1.60
2018,03,29,09,38,3.20
2018,03,29,09,39,1.60
2018,03,29,09,40,3.20
2018,03,29,09,41,1.60
2018,03,29,09,42,1.60
2018,03,29,09,43,3.20
2018,03,29,09,44,1.60
2018,03,29,09,45,1.60
2018,03,29,09,46,3.20
2018,03,29,09,47,3.20
2018,03,29,09,48,1.60
2018,03,29,09,49,3.20
2018,03,29,09,50,3.20
2018,03,29,09,51,6.40
2018,03,29,09,52,4.80
2018,03,29,09,53,3.20
2018,03,29,09,54,4.80
2018,03,29,09,55,4.80
2018,03,29,09,56,6.40
2018,03,29,09,57,4.80
2018,03,29,09,58,3.20
2018,03,29,09,59,3.20
2018,03,29,10,00,3.20
2018,03,29,10,01,4.80
2018,03,29,10,02,4.80
2018,03,29,10,03,3.20
2018,03,29,10,04,3.20
2018,03,29,10,05,1.60
2018,03,29,10,06,1.60
2018,03,29,10,07,1.60
2018,03,29,10,08,1.60
2018,03,29,10,09,3.20
2018,03,29,10,10,3.20
2018,03,29,10,11,3.20
2018,03,29,10,12,3.20
2018,03,29,10,13,3.20
2018,03,29,10,14,1.60
2018,03,29,10,15,1.60
2018,03,29,10,16,3.20
2018,03,29,10,17,3.20
2018,03,29,10,18,3.20
2018,03,29,10,19,6.40
2018,03,29,10,20,6.40
2018,03,29,10,21,1.60
2018,03,29,10,22,3.20
2018,03,29,10,23,3.20
2018,03,29,10,24,4.80
2018,03,29,10,25,3.20
2018,03,29,10,26,4.80
2018,03,29,10,27,4.80
2018,03,29,10,28,4.80
2018,03,29,10,29,4.80
2018,03,29,10,30,8.10
2018,03,29,10,31,4.80
2018,03,29,10,32,4.80
2018,03,29,10,33,3.20
2018,03,29,10,34,3.20
2018,03,29,10,35,6.40
2018,03,29,10,36,4.80
2018,03,29,10,37,6.40
2018,03,29,10,38,4.80
2018,03,29,10,39,3.20
2018,03,29,10,40,3.20
2018,03,29,10,41,3.20
2018,03,29,10,42,3.20
2018,03,29,10,43,3.20
2018,03,29,10,44,4.80
2018,03,29,10,45,3.20
2018,03,29,10,46,3.20
2018,03,29,10,47,3.20
2018,03,29,10,48,3.20
2018,03,29,10,49,1.60
2018,03,29,10,50,1.60
2018,03,29,10,51,3.20
2018,03,29,10,52,6.40
2018,03,29,10,53,8.10
2018,03,29,10,54,6.40
2018,03,29,10,55,4.80
2018,03,29,10,56,3.20
2018,03,29,10,57,3.20
2018,03,29,10,58,3.20
2018,03,29,10,59,4.80
2018,03,29,11,00,4.80
2018,03,29,11,01,3.20
2018,03,29,11,02,4.80
2018,03,29,11,03,4.80
2018,03,29,11,04,4.80
2018,03,29,11,05,4.80
2018,03,29,11,06,6.40
2018,03,29,11,07,4.80
2018,03,29,11,08,4.80
2018,03,29,11,09,3.20
2018,03,29,11,10,3.20
2018,03,29,11,11,3.20
2018,03,29,11,12,3.20
2018,03,29,11,13,3.20
2018,03,29,11,14,1.60
2018,03,29,11,15,4.80
2018,03,29,11,16,6.40
2018,03,29,11,17,6.40
2018,03,29,11,18,4.80
2018,03,29,11,19,6.40
2018,03,29,11,20,6.40
2018,03,29,11,21,4.80
2018,03,29,11,22,4.80
2018,03,29,11,23,4.80
2018,03,29,11,24,3.20
2018,03,29,11,25,4.80
2018,03,29,11,26,3.20
2018,03,29,11,27,3.20
2018,03,29,11,28,4.80
2018,03,29,11,29,6.40
2018,03,29,11,30,8.10
2018,03,29,11,31,6.40
2018,03,29,11,32,6.40
2018,03,29,11,33,6.40
2018,03,29,11,34,4.80
2018,03,29,11,35,6.40
2018,03,29,11,36,4.80
2018,03,29,11,37,6.40
2018,03,29,11,38,4.80
2018,03,29,11,39,9.60
2018,03,29,11,40,9.60
2018,03,29,11,41,6.40
2018,03,29,11,42,3.20
2018,03,29,11,43,3.20
2018,03,29,11,44,6.40
2018,03,29,11,45,8.10
2018,03,29,11,46,3.20
2018,03,29,11,47,3.20
2018,03,29,11,48,4.80
2018,03,29,11,49,6.40
2018,03,29,11,50,4.80
2018,03,29,11,51,8.10
2018,03,29,11,52,6.40
2018,03,29,11,53,6.40
2018,03,29,11,54,9.60
2018,03,29,11,55,8.10
2018,03,29,11,56,4.80
2018,03,29,11,57,4.80
2018,03,29,11,58,6.40
2018,03,29,11,59,8.10
2018,03,29,12,00,4.80
2018,03,29,12,01,3.20
2018,03,29,12,02,3.20
2018,03,29,12,03,3.20
2018,03,29,12,04,3.20
2018,03,29,12,05,3.20
2018,03,29,12,06,4.80
2018,03,29,12,07,3.20
2018,03,29,12,08,4.80
2018,03,29,12,09,3.20
2018,03,29,12,10,6.40
2018,03,29,12,11,4.80
2018,03,29,12,12,4.80
2018,03,29,12,13,1.60
2018,03,29,12,14,6.40
2018,03,29,12,15,4.80
2018,03,29,12,16,4.80
2018,03,29,12,17,4.80
2018,03,29,12,18,6.40
2018,03,29,12,19,4.80
2018,03,29,12,20,3.20
2018,03,29,12,21,3.20
2018,03,29,12,22,4.80
2018,03,29,12,23,3.20
2018,03,29,12,24,6.40
2018,03,29,12,25,12.90
2018,03,29,12,26,8.10
2018,03,29,12,27,3.20
2018,03,29,12,28,3.20
2018,03,29,12,29,8.10
2018,03,29,12,30,12.90
2018,03,29,12,31,9.60
2018,03,29,12,32,6.40
2018,03,29,12,33,6.40
2018,03,29,12,34,6.40
2018,03,29,12,35,6.40
2018,03,29,12,36,6.40
2018,03,29,12,37,6.40
2018,03,29,12,38,4.80
2018,03,29,12,39,8.10
2018,03,29,12,40,3.20
2018,03,29,12,41,3.20
2018,03,29,12,42,9.60
2018,03,29,12,43,12.90
2018,03,29,12,44,8.10
2018,03,29,12,45,14.50
2018,03,29,12,46,4.80
2018,03,29,12,47,3.20
2018,03,29,12,48,3.20
2018,03,29,12,49,12.90
2018,03,29,12,50,8.10
2018,03,29,12,51,6.40
2018,03,29,12,52,6.40
2018,03,29,12,53,4.80
2018,03,29,12,54,8.10
2018,03,29,12,55,8.10
2018,03,29,12,56,17.70
2018,03,29,12,57,12.90
2018,03,29,12,58,6.40
2018,03,29,12,59,8.10
2018,03,29,13,00,9.60
2018,03,29,13,01,9.60
2018,03,29,13,02,9.60
2018,03,29,13,03,11.30
2018,03,29,13,04,6.40
2018,03,29,13,05,8.10
2018,03,29,13,06,4.80
2018,03,29,13,07,3.20
2018,03,29,13,08,4.80
2018,03,29,13,09,4.80
2018,03,29,13,10,6.40
2018,03,29,13,11,6.40
2018,03,29,13,12,3.20
2018,03,29,13,13,6.40
2018,03,29,13,14,4.80
2018,03,29,13,15,6.40
2018,03,29,13,16,6.40
2018,03,29,13,17,9.60
2018,03,29,13,18,11.30
2018,03,29,13,19,11.30
2018,03,29,13,20,12.90
2018,03,29,13,21,8.10
2018,03,29,13,22,14.50
2018,03,29,13,23,14.50
2018,03,29,13,24,12.90
2018,03,29,13,25,9.60
2018,03,29,13,26,11.30
2018,03,29,13,27,4.80
2018,03,29,13,28,4.80
2018,03,29,13,29,6.40
2018,03,29,13,30,11.30
2018,03,29,13,31,8.10
2018,03,29,13,32,8.10
2018,03,29,13,33,3.20
2018,03,29,13,34,4.80
2018,03,29,13,35,4.80
2018,03,29,13,36,3.20
2018,03,29,13,37,4.80
2018,03,29,13,38,3.20
2018,03,29,13,39,4.80
2018,03,29,13,40,4.80
2018,03,29,13,41,4.80
2018,03,29,13,42,6.40
2018,03,29,13,43,4.80
2018,03,29,13,44,3.20
2018,03,29,13,45,4.80
2018,03,29,13,46,6.40
2018,03,29,13,47,4.80
2018,03,29,13,48,11.30
2018,03,29,13,49,6.40
2018,03,29,13,50,4.80
2018,03,29,13,51,6.40
2018,03,29,13,52,4.80
2018,03,29,13,53,4.80
2018,03,29,13,54,6.40
2018,03,29,13,55,11.30
2018,03,29,13,56,4.80
2018,03,29,13,57,6.40
2018,03,29,13,58,6.40
2018,03,29,13,59,4.80
2018,03,29,14,00,4.80
2018,03,29,14,01,3.20
2018,03,29,14,02,11.30
2018,03,29,14,03,9.60
2018,03,29,14,04,6.40
2018,03,29,14,05,9.60
2018,03,29,14,06,6.40
2018,03,29,14,07,6.40
2018,03,29,14,08,11.30
2018,03,29,14,09,6.40
2018,03,29,14,10,9.60
2018,03,29,14,11,9.60
2018,03,29,14,12,6.40
2018,03,29,14,13,11.30
2018,03,29,14,14,9.60
2018,03,29,14,15,11.30
2018,03,29,14,16,11.30
2018,03,29,14,17,9.60
2018,03,29,14,18,11.30
2018,03,29,14,19,4.80
2018,03,29,14,20,9.60
2018,03,29,14,21,8.10
2018,03,29,14,22,3.20
2018,03,29,14,23,8.10
2018,03,29,14,24,14.50
2018,03,29,14,25,11.30
2018,03,29,14,26,9.60
2018,03,29,14,27,3.20
2018,03,29,14,28,4.80
2018,03,29,14,29,14.50
2018,03,29,14,30,12.90
2018,03,29,14,31,8.10
2018,03,29,14,32,11.30
2018,03,29,14,33,11.30
2018,03,29,14,34,6.40
2018,03,29,14,35,6.40
2018,03,29,14,36,3.20
2018,03,29,14,37,4.80
2018,03,29,14,38,6.40
2018,03,29,14,39,6.40
2018,03,29,14,40,3.20
2018,03,29,14,41,1.60
2018,03,29,14,42,4.80
2018,03,29,14,43,6.40
2018,03,29,14,44,6.40
2018,03,29,14,45,3.20
2018,03,29,14,46,6.40
2018,03,29,14,47,12.90
2018,03,29,14,48,6.40
2018,03,29,14,49,6.40
2018,03,29,14,50,9.60
2018,03,29,14,51,6.40
2018,03,29,14,52,6.40
2018,03,29,14,53,4.80
2018,03,29,14,54,3.20
2018,03,29,14,55,6.40
2018,03,29,14,56,6.40
2018,03,29,14,57,4.80
2018,03,29,14,58,4.80
2018,03,29,14,59,4.80
2018,03,29,15,00,4.80
2018,03,29,15,01,4.80
2018,03,29,15,02,4.80
2018,03,29,15,03,9.60
2018,03,29,15,04,4.80
2018,03,29,15,05,3.20
2018,03,29,15,06,9.60
2018,03,29,15,07,8.10
2018,03,29,15,08,6.40
2018,03,29,15,09,8.10
2018,03,29,15,10,16.10
2018,03,29,15,11,8.10
2018,03,29,15,12,6.40
2018,03,29,15,13,8.10
2018,03,29,15,14,6.40
2018,03,29,15,15,8.10
2018,03,29,15,16,8.10
2018,03,29,15,17,4.80
2018,03,29,15,18,4.80
2018,03,29,15,19,8.10
2018,03,29,15,20,3.20
2018,03,29,15,21,6.40
2018,03,29,15,22,3.20
2018,03,29,15,23,6.40
2018,03,29,15,24,8.10
2018,03,29,15,25,3.20
2018,03,29,15,26,3.20
2018,03,29,15,27,4.80
2018,03,29,15,28,4.80
2018,03,29,15,29,4.80
2018,03,29,15,30,4.80
2018,03,29,15,31,3.20
2018,03,29,15,32,3.20
2018,03,29,15,33,3.20
2018,03,29,15,34,8.10
2018,03,29,15,35,8.10
2018,03,29,15,36,3.20
2018,03,29,15,37,4.80
2018,03,29,15,38,1.60
2018,03,29,15,39,3.20
2018,03,29,15,40,3.20
2018,03,29,15,41,4.80
2018,03,29,15,42,3.20
2018,03,29,15,43,4.80
2018,03,29,15,44,1.60
2018,03,29,15,45,1.60
2018,03,29,15,46,1.60
2018,03,29,15,47,6.40
2018,03,29,15,48,6.40
2018,03,29,15,49,6.40
2018,03,29,15,50,6.40
2018,03,29,15,51,6.40
2018,03,29,15,52,4.80
2018,03,29,15,53,6.40
2018,03,29,15,54,3.20
2018,03,29,15,55,1.60
2018,03,29,15,56,4.80
2018,03,29,15,57,4.80
2018,03,29,15,58,3.20
2018,03,29,15,59,3.20
2018,03,29,16,00,3.20
2018,03,29,16,01,3.20
2018,03,29,16,02,6.40
2018,03,29,16,03,6.40
2018,03,29,16,04,4.80
2018,03,29,16,05,3.20
2018,03,29,16,06,3.20
2018,03,29,16,07,4.80
2018,03,29,16,08,4.80
2018,03,29,16,09,3.20
2018,03,29,16,10,4.80
2018,03,29,16,11,6.40
2018,03,29,16,12,8.10
2018,03,29,16,13,6.40
2018,03,29,16,14,4.80
2018,03,29,16,15,4.80
2018,03,29,16,16,4.80
2018,03,29,16,17,3.20
2018,03,29,16,18,6.40
2018,03,29,16,19,6.40
2018,03,29,16,20,6.40
2018,03,29,16,21,3.20
2018,03,29,16,22,1.60
2018,03,29,16,23,3.20
2018,03,29,16,24,8.10
2018,03,29,16,25,4.80
2018,03,29,16,26,3.20
2018,03,29,16,27,3.20
2018,03,29,16,28,6.40
2018,03,29,16,29,4.80
2018,03,29,16,30,4.80
2018,03,29,16,31,4.80
2018,03,29,16,32,3.20
2018,03,29,16,33,4.80
2018,03,29,16,34,6.40
2018,03,29,16,35,3.20
2018,03,29,16,36,4.80
2018,03,29,16,37,6.40
2018,03,29,16,38,4.80
2018,03,29,16,39,3.20
2018,03,29,16,40,4.80
2018,03,29,16,41,3.20
2018,03,29,16,42,3.20
2018,03,29,16,43,3.20
2018,03,29,16,44,4.80
2018,03,29,16,45,3.20
2018,03,29,16,46,6.40
2018,03,29,16,47,4.80
2018,03,29,16,48,3.20
2018,03,29,16,49,4.80
2018,03,29,16,50,6.40
2018,03,29,16,51,3.20
2018,03,29,16,52,3.20
2018,03,29,16,53,3.20
2018,03,29,16,54,6.40
2018,03,29,16,55,4.80
2018,03,29,16,56,3.20
2018,03,29,16,57,1.60
2018,03,29,16,58,4.80
2018,03,29,16,59,6.40
2018,03,29,17,00,4.80
2018,03,29,17,01,3.20
2018,03,29,17,02,6.40
2018,03,29,17,03,6.40
2018,03,29,17,04,3.20
2018,03,29,17,05,3.20
2018,03,29,17,06,6.40
2018,03,29,17,07,1.60
2018,03,29,17,08,3.20
2018,03,29,17,09,4.80
2018,03,29,17,10,8.10
2018,03,29,17,11,6.40
2018,03,29,17,12,8.10
2018,03,29,17,13,3.20
2018,03,29,17,14,3.20
2018,03,29,17,15,3.20
2018,03,29,17,16,3.20
2018,03,29,17,17,3.20
2018,03,29,17,18,11.30
2018,03,29,17,19,8.10
2018,03,29,17,20,6.40
2018,03,29,17,21,4.80
2018,03,29,17,22,1.60
2018,03,29,17,23,1.60
2018,03,29,17,24,3.20
2018,03,29,17,25,1.60
2018,03,29,17,26,3.20
2018,03,29,17,27,6.40
2018,03,29,17,28,1.60
2018,03,29,17,29,6.40
2018,03,29,17,30,8.10
2018,03,29,17,31,8.10
2018,03,29,17,32,8.10
2018,03,29,17,33,11.30
2018,03,29,17,34,8.10
2018,03,29,17,35,4.80
2018,03,29,17,36,3.20
2018,03,29,17,37,3.20
2018,03,29,17,38,3.20
2018,03,29,17,39,4.80
2018,03,29,17,40,3.20
2018,03,29,17,41,1.60
2018,03,29,17,42,3.20
2018,03,29,17,43,4.80
2018,03,29,17,44,6.40
2018,03,29,17,45,6.40
2018,03,29,17,46,1.60
2018,03,29,17,47,1.60
2018,03,29,17,48,6.40
2018,03,29,17,49,4.80
2018,03,29,17,50,1.60
2018,03,29,17,51,6.40
2018,03,29,17,52,6.40
2018,03,29,17,53,3.20
2018,03,29,17,54,3.20
2018,03,29,17,55,6.40
2018,03,29,17,56,6.40
2018,03,29,17,57,3.20
2018,03,29,17,58,3.20
2018,03,29,17,59,4.80
2018,03,29,18,00,3.20
2018,03,29,18,01,6.40
2018,03,29,18,02,4.80
2018,03,29,18,03,3.20
2018,03,29,18,04,1.60
2018,03,29,18,05,3.20
2018,03,29,18,06,3.20
2018,03,29,18,07,1.60
2018,03,29,18,08,4.80
2018,03,29,18,09,3.20
2018,03,29,18,10,3.20
2018,03,29,18,11,3.20
2018,03,29,18,12,4.80
2018,03,29,18,13,3.20
2018,03,29,18,14,3.20
2018,03,29,18,15,3.20
2018,03,29,18,16,1.60
2018,03,29,18,17,4.80
2018,03,29,18,18,4.80
2018,03,29,18,19,8.10
2018,03,29,18,20,9.60
2018,03,29,18,21,6.40
2018,03,29,18,22,6.40
2018,03,29,18,23,3.20
2018,03,29,18,24,3.20
2018,03,29,18,25,3.20
2018,03,29,18,26,4.80
2018,03,29,18,27,8.10
2018,03,29,18,28,6.40
2018,03,29,18,29,6.40
2018,03,29,18,30,6.40
2018,03,29,18,31,6.40
2018,03,29,18,32,3.20
2018,03,29,18,33,1.60
2018,03,29,18,34,4.80
2018,03,29,18,35,4.80
2018,03,29,18,36,4.80
2018,03,29,18,37,3.20
2018,03,29,18,38,3.20
2018,03,29,18,39,4.80
2018,03,29,18,40,3.20
2018,03,29,18,41,4.80
2018,03,29,18,42,9.60
2018,03,29,18,43,9.60
2018,03,29,18,44,3.20
2018,03,29,18,45,4.80
2018,03,29,18,46,4.80
2018,03,29,18,47,4.80
2018,03,29,18,48,6.40
2018,03,29,18,49,3.20
2018,03,29,18,50,4.80
2018,03,29,18,51,3.20
2018,03,29,18,52,3.20
2018,03,29,18,53,4.80
2018,03,29,18,54,1.60
2018,03,29,18,55,1.60
2018,03,29,18,56,1.60
2018,03,29,18,57,1.60
2018,03,29,18,58,3.20
2018,03,29,18,59,3.20
2018,03,29,19,00,8.10
2018,03,29,19,01,3.20
2018,03,29,19,02,3.20
2018,03,29,19,03,3.20
2018,03,29,19,04,3.20
2018,03,29,19,05,4.80
2018,03,29,19,06,1.60
2018,03,29,19,07,1.60
2018,03,29,19,08,1.60
2018,03,29,19,10,1.60
2018,03,29,19,11,3.20
2018,03,29,19,12,6.40
2018,03,29,19,13,4.80
2018,03,29,19,14,4.80
2018,03,29,19,15,4.80
2018,03,29,19,16,8.10
2018,03,29,19,17,3.20
2018,03,29,19,18,4.80
2018,03,29,19,19,8.10
2018,03,29,19,20,1.60
2018,03,29,19,21,3.20
2018,03,29,19,22,1.60
2018,03,29,19,23,4.80
2018,03,29,19,24,4.80
2018,03,29,19,25,4.80
2018,03,29,19,26,6.40
2018,03,29,19,27,4.80
2018,03,29,19,28,3.20
2018,03,29,19,29,8.10
2018,03,29,19,30,8.10
2018,03,29,19,31,6.40
2018,03,29,19,32,4.80
2018,03,29,19,33,3.20
2018,03,29,19,34,3.20